Location: Asheville, NC
(35.6000°N, 82.5500°W)
Time: 16:49:27
(UTC-05:00)

Vanguard 2 - Pass Details

Date: 11 February 2018
Orbit: 553 x 2939 km, 32.9° (Epoch: 18 February)

Event Time Altitude Azimuth Distance (km) Brightness Sun altitude
Rises 21:36:23 0° 251° (WSW) 3,587 11.6 -42.6°
Enters shadow 21:39:19 10° 247° (WSW) 2,404 10.5 -43.2°
Reaches altitude 10° 21:39:26 10° 247° (WSW) 2,358 - -43.2°
Maximum altitude 21:44:26 51° 171° (S) 783 - -44.2°
Drops below altitude 10° 21:48:20 10° 95° (E) 1,839 - -44.9°
Sets 21:50:27 0° 89° (E) 2,712 - -45.3°
